Simultaneous Nadir Overpasses (SNOs) Predictions

Prediction of SNOs between NOAA-19 and TERRA Satellite Orbit:

Table of predicted SNOs for the next 14.0 days since TLE Epoch: 11/4/2023
Index Date (NOAA-19) Time (NOAA-19) Lat,Lon (NOAA-19) SZA (NOAA-19 ) Date (TERRA) Time (TERRA) Lat,Lon (TERRA) SZA (TERRA ) Distance(km) Time Diff (sec)
1 11/04/2023 06:45:42 80.72, 108.27 97.50 11/04/2023 06:45:36 80.71, 108.10 97.48 3.22 6
2 11/06/2023 09:45:04 80.69, 62.68 98.05 11/06/2023 09:46:12 80.68, 62.64 98.07 0.81 68
3 11/06/2023 10:35:57 -80.71,-129.52 81.88 11/06/2023 10:35:34 -80.71,-129.41 81.88 2.09 23
4 11/08/2023 13:35:18 -80.68,-174.87 81.32 11/08/2023 13:36:10 -80.67,-175.01 81.33 2.99 52
5 11/08/2023 14:26:20 80.72, -6.80 98.79 11/08/2023 14:25:29 80.72, -6.76 98.78 1.21 51
6 11/10/2023 17:25:41 80.69, -52.17 99.33 11/10/2023 17:26:04 80.70, -52.20 99.34 0.85 23
7 11/10/2023 18:16:34 -80.71, 115.54 80.62 11/10/2023 18:15:27 -80.70, 115.43 80.66 2.55 67
8 11/12/2023 21:15:55 -80.68, 70.09 80.12 11/12/2023 21:16:01 -80.69, 70.15 80.11 1.23 6
9 11/15/2023 01:06:18 80.69,-167.34 100.46 11/15/2023 01:05:55 80.68,-167.36 100.45 0.53 23
10 11/17/2023 04:05:39 80.65, 147.07 100.90 11/17/2023 04:06:29 80.64, 147.05 100.90 1.01 50



Historial Predications of SNOs between NOAA-19 and TERRA
